Other Public Products
Issued by NWS Charleston, SC

Current Version | Previous Version | Graphics & Text | Print | Product List | Glossary On
Versions: 1 2 3 4 5 6 7 8 9 10 11 12 13 14 15 16 17 18 19 20 21 22 23 24 25 26 27 28 29 30 31 32 33 34 35 36 37 38 39 40 41 42 43 44 45 46 47 48 49 50
435
FPUS82 KCHS 262227
OPUCHS

TEST...KCHS/KSAV Gateway Observations...TEST
National Weather Service Charleston SC
500 PM EST SUN FEB 26 2017

NOTE: "fair" indicates few or no clouds below 12,000 feet with no
significant weather and/or obstructions to visibility.

SCZ050-WAZ558-NCZ071-TXZ119-213-PAZ071-DCZ001-FLZ074-172-MI076-
NYZ176-178-MAZ016-IL014-TNZ027-NJZ106-GAZ044-MD014-262300-
...Gateway Observations for Charleston International...

CITY           SKY/WX    TMP DP  RH WIND       PRES   REMARKS
Chas Airport   SUNNY     60  34  37 S10       30.19R
Seattle        LGT RAIN  41  35  79 E3        29.68S
Charlotte      MOSUNNY   56  14  19 VRB7      30.19R
Dallas DFW     PTSUNNY   63  51  65 S17G23    29.87F
Dallas Love    CLOUDY    63  51  65 S14       29.89F
Philladelphia  PTCLDY    43  16  33 W20G25    30.16R
Wash National  MOSUNNY   49  17  28 W6        30.17R
Baltimore      PTCLDY    45  19  35 NW9       30.17R
Miami          MOSUNNY   80  65  59 NE10      30.09R
Detroit        PTSUNNY   42  19  39 SW26G36   30.00F
Newark         PTCLDY    41  16  36 W20       30.10R
Laguardia      PTCLDY    44  16  32 W18G24    30.08R
J F K          PTCLDY    43  15  32 W16G24    30.10R
Boston Logan   PTCLDY    39  14  36 W21G29    29.95R WCI  29
Ft. Lauderdale MOSUNNY   79  65  62 NE15      30.09R
Chicago O`Hare MOSUNNY   49  21  33 W17G31    29.93R
Chicago Midway MOSUNNY   48  20  32 SW20      29.95R
Houston Bush   PTSUNNY   72  59  63 SE20      29.94F
Houston Hobby  CLOUDY    71  58  63 SE15G24   29.95S
Nashville      PTSUNNY   54  16  22 S8        30.15S
Atlanta        MOSUNNY   62  15  16 CALM      30.16F

$$

GAZ044-118-TXZ119-213-NCZ071-DCZ001-MDZ014-506-PAZ021-071-NJZ106-
NYZ176-178-MAZ106-OHZ011-021-055-MIZ076-KYZ091-ILZ014-INZ047-
MNZ060-ONZ431-262300-
...Gateway Observations for Savannah International...

CITY           SKY/WX    TMP DP  RH WIND       PRES   REMARKS
Savannah Arpt  SUNNY     68  18  14 NW5       30.20R
Atlanta        MOSUNNY   62  15  16 CALM      30.16F
Charlotte      MOSUNNY   56  14  19 VRB7      30.19R
Dallas DFW     PTSUNNY   63  51  65 S17G23    29.87F
Houston Bush   PTSUNNY   72  59  63 SE20      29.94F
Wash National  MOSUNNY   49  17  28 W6        30.17R
Wash Dulles    MOSUNNY   47  16  29 NW8       30.16R
Baltimore      PTCLDY    45  19  35 NW9       30.17R
Philadelphia   PTCLDY    43  16  33 W20G25    30.16R
Newark         PTCLDY    41  16  36 W20       30.10R
Laguardia      PTCLDY    44  16  32 W18G24    30.08R
J F K          PTCLDY    43  15  32 W16G24    30.10R
Boston         PTCLDY    39  14  36 W21G29    29.95R WCI  29
Pittsburg      MOSUNNY   39  15  37 SW8       30.12S WCI  33
Akron          MOSUNNY   40  16  37 SW15      30.10R WCI  32
Cleveland      MOSUNNY   42  17  36 SW14      30.09S
Cincinnati     PTSUNNY   46  13  26 SW7       30.14S
Columbus       SUNNY     42  18  37 SW9G17    30.15S
Detroit        PTSUNNY   42  19  39 SW26G36   30.00F
Chicago O`Hare MOSUNNY   49  21  33 W17G31    29.93R
Minneapolis    MOSUNNY   36  11  35 W14       29.85R WCI  27
Indianapolis   CLOUDY    45  14  28 SW15      30.09S
Toronto Canada PTSUNNY   34  18  51 SW15G25   29.99S WCI  24

$$




USA.gov is the U.S. government's official web portal to all federal, state and local government web resources and services.